Weather in Russkoye Ust'ye

Russia / Sakha (Yakutia) Republic     71°08′00″N   149°16′49″E
temp.,
°C
wind,
m/s
gust,
m/s
humid.,
%
clouds,
%
prec.,
mm/h
press.,
hPa
HPBL,
m
20 april, tue
tue2023:00−20ssw3310054 0.0 102612
02:00−15se459297 0.0 102660
05:00−13ese4988100 0.0 1026132
08:00−11e51187100 0.0 1025226
11:00−9ene61384100 0.0 1023325
14:00−8ene81585100 0.0 1020434
17:00−7e81387100 0.0 1017486
20:00−7e61093100 0.0 1016353
21 april, wed
wed2123:00−6e4796100 0.8 1014226
02:00−7sse229823 0.6 101311
05:00−13sw2210083 0.6 10139
08:00−9wsw2297100 0.0 101436
11:00−5w2293100 0.0 1014110
14:00−4nw1291100 0.0 1014194
17:00−3nw239267 0.0 1014204
20:00−8nw229884 0.0 101416
22 april, thu
thu2223:00−8nw3497100 0.1 101572
02:00−8nw3696100 0.1 1016150
05:00−9wnw4796100 0.5 1017195
08:00−9wnw4795100 0.2 1018302
11:00−8wnw5791100 0.6 1018427
14:00−8wnw6788100 0.2 1019520
17:00−9wnw5892100 0.2 1019453
20:00−10wnw5993100 0.0 1020365
23 april, fri
fri2323:00−13w5994100 0.0 1021213
02:00−15w5996100 0.0 1022151
05:00−20wsw4710064 0.0 102375
08:00−19wsw479861 0.0 1024104
11:00−16wsw35955 0.0 1025138
14:00−14wsw23915 0.0 1025146
17:00−15wsw11935 0.0 10259
20:00−19sw11995 0.0 10259
24 april, sat
sat2423:00−23se1110032 0.0 10269
02:00−25ese1110054 0.0 10259
05:00−26sse1110060 0.0 10259
08:00−19sse23965 0.0 102543
11:00−14s23855 0.0 102488
14:00−11s34835 0.0 1023135
17:00−11s34855 0.0 102273
20:00−16s33885 0.0 102123